,,PA_Meas_PMT16A,,PR_Meas_QMR101_102,,RH_Meas_QMH101,,SR_Meas_QMS101,,TA_Meas_QMH101,,GenWind,,GenWind,
time,status,PA,status,PR,status,RH,status,SR,status,TA,status,DirAvg,status,SpdAvg,
2014-03-08, 07:12:04,VALID,919.338,VALID,0,VALID,90.1164,VALID,56.514,VALID,18.416,VALID,148,VALID,0.960938,
2014-03-08, 07:13:04,VALID,919.315,VALID,0,VALID,90.0097,VALID,58.3405,VALID,18.4954,VALID,139,VALID,0.745703,
2014-03-08, 07:14:04,VALID,919.302,VALID,0,VALID,89.8648,VALID,60.167,VALID,18.5344,VALID,131,VALID,1.07891,
2014-03-08, 07:15:04,VALID,919.333,VALID,0,VALID,89.8115,VALID,61.9935,VALID,18.5929,VALID,143,VALID,1.41562,
2014-03-08, 07:16:04,VALID,919.339,VALID,0,VALID,89.6056,VALID,64.0349,VALID,18.6499,VALID,143,VALID,1.0332,
2014-03-08, 07:17:04,VALID,919.326,VALID,0,VALID,89.4227,VALID,66.0763,VALID,18.7098,VALID,135,VALID,1.11445,
2014-03-08, 07:18:04,VALID,919.351,VALID,0,VALID,89.2321,VALID,67.9028,VALID,18.7474,VALID,138,VALID,1.71133,
2014-03-08, 07:19:04,VALID,919.305,VALID,0,VALID,89.0415,VALID,69.6219,VALID,18.7878,VALID,133,VALID,1.25586,
2014-03-08, 07:20:04,VALID,919.272,VALID,0,VALID,88.9576,VALID,71.126,VALID,18.8073,VALID,133,VALID,1.37344,
2014-03-08, 07:21:04,VALID,919.275,VALID,0,VALID,88.8433,VALID,72.7377,VALID,18.8268,VALID,124,VALID,1.25391,
2014-03-08, 07:22:04,VALID,919.306,VALID,0,VALID,88.8357,VALID,74.3493,VALID,18.8059,VALID,128,VALID,1.38555,
2014-03-08, 07:23:04,VALID,919.308,VALID,0,VALID,88.828,VALID,76.1758,VALID,18.8059,VALID,134,VALID,0.913281,
2014-03-08, 07:24:04,VALID,919.333,VALID,0,VALID,88.95,VALID,78.3246,VALID,18.8059,VALID,124,VALID,0.800781,
2014-03-08, 07:25:04,VALID,919.352,VALID,0,VALID,88.8357,VALID,80.6883,VALID,18.7864,VALID,142,VALID,1.09531,
2014-03-08, 07:26:04,VALID,919.374,VALID,0,VALID,88.8509,VALID,83.1595,VALID,18.7864,VALID,119,VALID,1.12852,
2014-03-08, 07:27:04,VALID,919.396,VALID,0,VALID,88.9348,VALID,85.6306,VALID,18.7683,VALID,129,VALID,1.08047,
2014-03-08, 07:28:04,VALID,919.406,VALID,0,VALID,89.1635,VALID,88.1017,VALID,18.7878,VALID,112,VALID,0.855469,
2014-03-08, 07:29:04,VALID,919.402,VALID,0,VALID,89.2016,VALID,90.7878,VALID,18.7878,VALID,140,VALID,1.38867,
2014-03-08, 07:30:04,VALID,919.412,VALID,0,VALID,89.0567,VALID,93.3664,VALID,18.8073,VALID,100,VALID,1.27969,
2014-03-08, 07:31:04,VALID,919.371,VALID,0,VALID,89.0949,VALID,95.9449,VALID,18.8672,VALID,141,VALID,1.00508,
2014-03-08, 07:32:04,VALID,919.385,VALID,0,VALID,89.0567,VALID,98.3087,VALID,18.8658,VALID,147,VALID,1.19297,
2014-03-08, 07:33:04,VALID,919.444,VALID,0,VALID,88.8662,VALID,100.565,VALID,18.8853,VALID,133,VALID,1.50195,
2014-03-08, 07:34:04,VALID,919.436,VALID,0,VALID,88.7442,VALID,102.714,VALID,18.9048,VALID,156,VALID,0.776172,
2014-03-08, 07:35:04,VALID,919.457,VALID,0,VALID,88.6298,VALID,105.292,VALID,18.9243,VALID,142,VALID,1.54688,
2014-03-08, 07:36:04,VALID,919.455,VALID,0,VALID,88.6984,VALID,107.871,VALID,18.9633,VALID,143,VALID,1.23359,
2014-03-08, 07:37:04,VALID,919.476,VALID,0,VALID,88.6298,VALID,110.342,VALID,19.0023,VALID,142,VALID,0.855859,
2014-03-08, 07:38:04,VALID,919.515,VALID,0,VALID,88.7137,VALID,112.813,VALID,19.0218,VALID,146,VALID,1.11484,
2014-03-08, 07:39:04,VALID,919.54,VALID,0,VALID,88.7442,VALID,115.607,VALID,19.0803,VALID,162,VALID,0.913672,
2014-03-08, 07:40:04,VALID,919.546,VALID,0,VALID,88.1801,VALID,119.045,VALID,19.0803,VALID,145,VALID,1.08164,
2014-03-08, 07:41:04,VALID,919.569,VALID,0,VALID,88.2944,VALID,122.483,VALID,19.1388,VALID,168,VALID,1.1582,
2014-03-08, 07:42:04,VALID,919.568,VALID,0,VALID,88.1191,VALID,126.566,VALID,19.1778,VALID,142,VALID,0.965234,
2014-03-08, 07:43:04,VALID,919.59,VALID,0,VALID,88.1419,VALID,130.434,VALID,19.1973,VALID,170,VALID,0.826172,
2014-03-08, 07:44:04,VALID,919.611,VALID,0,VALID,88.2182,VALID,134.516,VALID,19.2168,VALID,167,VALID,0.751172,
2014-03-08, 07:45:04,VALID,919.616,VALID,0,VALID,87.959,VALID,136.987,VALID,19.2558,VALID,150,VALID,1.20547,
2014-03-08, 07:46:04,VALID,919.626,VALID,0,VALID,87.9209,VALID,139.351,VALID,19.3338,VALID,162,VALID,0.875,
2014-03-08, 07:47:04,VALID,919.665,VALID,0,VALID,87.6845,VALID,141.285,VALID,19.3728,VALID,182,VALID,0.716016,
2014-03-08, 07:48:04,VALID,919.674,VALID,0,VALID,87.3415,VALID,143.756,VALID,19.3908,VALID,172,VALID,1.47852,
2014-03-08, 07:49:04,VALID,919.72,VALID,0,VALID,87.654,VALID,145.583,VALID,19.4508,VALID,159,VALID,0.617188,
2014-03-08, 07:50:04,VALID,919.697,VALID,0,VALID,87.4634,VALID,147.624,VALID,19.5093,VALID,150,VALID,1.42266,
2014-03-08, 07:51:04,VALID,919.717,VALID,0,VALID,87.0594,VALID,148.913,VALID,19.5288,VALID,141,VALID,1.63164,
2014-03-08, 07:52:04,VALID,919.72,VALID,0,VALID,86.9298,VALID,149.988,VALID,19.5678,VALID,159,VALID,0.942969,
2014-03-08, 07:53:04,VALID,919.695,VALID,0,VALID,87.1585,VALID,151.17,VALID,19.6068,VALID,160,VALID,0.975391,
2014-03-08, 07:54:04,VALID,919.713,VALID,0,VALID,87.2043,VALID,153.641,VALID,19.6653,VALID,160,VALID,0.726563,
2014-03-08, 07:55:04,VALID,919.712,VALID,0,VALID,87.2957,VALID,156.434,VALID,19.7223,VALID,155,VALID,0.580859,
2014-03-08, 07:56:04,VALID,919.7,VALID,0,VALID,86.6477,VALID,159.013,VALID,19.7823,VALID,164,VALID,1.55742,
2014-03-08, 07:57:04,VALID,919.717,VALID,0,VALID,86.5182,VALID,162.344,VALID,19.8198,VALID,163,VALID,0.527344,
2014-03-08, 07:58:04,VALID,919.746,VALID,0,VALID,86.2971,VALID,165.782,VALID,19.8588,VALID,142,VALID,1.43594,
2014-03-08, 07:59:04,VALID,919.74,VALID,0,VALID,86.6172,VALID,168.36,VALID,19.8978,VALID,138,VALID,0.921875,
2014-03-08, 08:00:04,VALID,919.731,VALID,0,VALID,86.3885,VALID,171.584,VALID,19.9368,VALID,151,VALID,0.641797,
2014-03-08, 08:01:04,VALID,919.731,VALID,0,VALID,86.1598,VALID,173.732,VALID,19.9758,VALID,140,VALID,1.52852,
2014-03-08, 08:02:04,VALID,919.71,VALID,0,VALID,86.4038,VALID,176.203,VALID,20.0358,VALID,120,VALID,1.0043,
2014-03-08, 08:03:04,VALID,919.737,VALID,0,VALID,86.3352,VALID,179.427,VALID,20.0749,VALID,149,VALID,1.22266,
2014-03-08, 08:04:04,VALID,919.725,VALID,0,VALID,86.3504,VALID,182.328,VALID,20.0928,VALID,139,VALID,1.42383,
2014-03-08, 08:05:04,VALID,919.726,VALID,0,VALID,86.2361,VALID,185.336,VALID,20.1139,VALID,143,VALID,1.79492,
2014-03-08, 08:06:04,VALID,919.698,VALID,0,VALID,86.3581,VALID,189.741,VALID,20.1123,VALID,126,VALID,1.26016,
2014-03-08, 08:07:04,VALID,919.741,VALID,0,VALID,86.2361,VALID,193.287,VALID,20.1318,VALID,143,VALID,1.63281,
2014-03-08, 08:08:04,VALID,919.759,VALID,0,VALID,85.9007,VALID,196.725,VALID,20.1318,VALID,133,VALID,1.55078,
2014-03-08, 08:09:04,VALID,919.767,VALID,0,VALID,85.893,VALID,200.593,VALID,20.1318,VALID,132,VALID,1.56602,
2014-03-08, 08:10:04,VALID,919.784,VALID,0,VALID,86.2513,VALID,203.923,VALID,20.1724,VALID,155,VALID,0.934766,
2014-03-08, 08:11:04,VALID,919.787,VALID,0,VALID,86.3199,VALID,207.899,VALID,20.1903,VALID,148,VALID,1.63203,
2014-03-08, 08:12:04,VALID,919.826,VALID,0,VALID,85.9769,VALID,212.411,VALID,20.2489,VALID,144,VALID,0.976172,
2014-03-08, 08:13:04,VALID,919.818,VALID,0,VALID,85.6491,VALID,217.568,VALID,20.3074,VALID,164,VALID,1.61289,
2014-03-08, 08:14:04,VALID,919.829,VALID,0,VALID,84.8258,VALID,221.973,VALID,20.3284,VALID,145,VALID,1.40508,
2014-03-08, 08:15:04,VALID,919.871,VALID,0,VALID,85.306,VALID,225.949,VALID,20.2863,VALID,123,VALID,1.89414,
2014-03-08, 08:16:04,VALID,919.843,VALID,0,VALID,84.9096,VALID,231.536,VALID,20.3074,VALID,144,VALID,2.26133,
2014-03-08, 08:17:04,VALID,919.843,VALID,0,VALID,85.1078,VALID,235.618,VALID,20.3074,VALID,152,VALID,1.44883,
2014-03-08, 08:18:04,VALID,919.826,VALID,0,VALID,84.9935,VALID,237.445,VALID,20.3464,VALID,159,VALID,0.891797,
2014-03-08, 08:19:04,VALID,919.825,VALID,0,VALID,84.8334,VALID,240.238,VALID,20.3643,VALID,174,VALID,1.5457,
2014-03-08, 08:20:04,VALID,919.814,VALID,0,VALID,84.963,VALID,243.354,VALID,20.4634,VALID,163,VALID,1.1,
2014-03-08, 08:21:04,VALID,919.812,VALID,0,VALID,84.4293,VALID,246.148,VALID,20.5219,VALID,156,VALID,1.81641,
2014-03-08, 08:22:04,VALID,919.793,VALID,0,VALID,83.5831,VALID,252.487,VALID,20.5399,VALID,142,VALID,1.59687,
2014-03-08, 08:23:04,VALID,919.805,VALID,0,VALID,84.3836,VALID,255.065,VALID,20.6179,VALID,167,VALID,1.2875,
2014-03-08, 08:24:04,VALID,919.822,VALID,0,VALID,84.1015,VALID,258.396,VALID,20.717,VALID,163,VALID,1.21094,
2014-03-08, 08:25:04,VALID,919.827,VALID,0,VALID,83.8957,VALID,261.619,VALID,20.7739,VALID,156,VALID,1.40937,
2014-03-08, 08:26:04,VALID,919.835,VALID,0,VALID,83.7356,VALID,263.661,VALID,20.8714,VALID,155,VALID,0.816406,
2014-03-08, 08:27:04,VALID,919.827,VALID,0,VALID,83.2934,VALID,265.057,VALID,20.93,VALID,174,VALID,0.9125,
2014-03-08, 08:28:04,VALID,919.841,VALID,0,VALID,83.141,VALID,266.669,VALID,21.047,VALID,160,VALID,0.710938,
2014-03-08, 08:29:04,VALID,919.869,VALID,0,VALID,82.6531,VALID,268.925,VALID,21.1445,VALID,149,VALID,0.776563,
2014-03-08, 08:30:04,VALID,919.885,VALID,0,VALID,82.1957,VALID,272.148,VALID,21.164,VALID,133,VALID,1.09141,
2014-03-08, 08:31:04,VALID,919.896,VALID,0,VALID,82.1118,VALID,272.471,VALID,21.2616,VALID,152,VALID,0.966797,
2014-03-08, 08:32:04,VALID,919.901,VALID,0,VALID,81.6697,VALID,274.297,VALID,21.2827,VALID,134,VALID,1.2418,
2014-03-08, 08:33:04,VALID,919.883,VALID,0,VALID,81.9517,VALID,278.165,VALID,21.3412,VALID,153,VALID,1.48594,
2014-03-08, 08:34:04,VALID,919.889,VALID,0,VALID,81.3495,VALID,279.562,VALID,21.3217,VALID,127,VALID,1.73672,
2014-03-08, 08:35:04,VALID,919.862,VALID,0,VALID,82.1194,VALID,285.579,VALID,21.3412,VALID,137,VALID,1.73711,
2014-03-08, 08:36:04,VALID,919.856,VALID,0,VALID,82.1728,VALID,290.951,VALID,21.4193,VALID,155,VALID,1.39336,
2014-03-08, 08:37:04,VALID,919.876,VALID,0,VALID,81.1589,VALID,296.967,VALID,21.4778,VALID,140,VALID,1.74063,
2014-03-08, 08:38:04,VALID,919.923,VALID,0,VALID,81.6697,VALID,298.794,VALID,21.5559,VALID,152,VALID,1.24688,
2014-03-08, 08:39:04,VALID,919.918,VALID,0,VALID,80.5795,VALID,305.24,VALID,21.5949,VALID,136,VALID,1.97617,
2014-03-08, 08:40:04,VALID,919.923,VALID,0,VALID,80.8006,VALID,304.488,VALID,21.6144,VALID,125,VALID,2.8125,
2014-03-08, 08:41:04,VALID,919.901,VALID,0,VALID,81.4028,VALID,302.447,VALID,21.6518,VALID,145,VALID,1.29453,
2014-03-08, 08:42:04,VALID,919.929,VALID,0,VALID,80.854,VALID,307.282,VALID,21.829,VALID,171,VALID,1.01484,
2014-03-08, 08:43:04,VALID,919.98,VALID,0,VALID,80.549,VALID,305.992,VALID,21.8664,VALID,154,VALID,1.49805,
2014-03-08, 08:44:04,VALID,919.955,VALID,0,VALID,78.8414,VALID,312.761,VALID,21.8664,VALID,165,VALID,1.86406,
2014-03-08, 08:45:04,VALID,919.934,VALID,0,VALID,79.2302,VALID,313.836,VALID,21.8664,VALID,129,VALID,2.2957,
2014-03-08, 08:46:04,VALID,919.925,VALID,0,VALID,79.7562,VALID,316.629,VALID,21.9054,VALID,146,VALID,1.91758,
2014-03-08, 08:47:04,VALID,919.935,VALID,0,VALID,79.8477,VALID,318.885,VALID,21.9851,VALID,140,VALID,2.05039,
2014-03-08, 08:48:04,VALID,919.916,VALID,0,VALID,79.6418,VALID,328.448,VALID,22.0242,VALID,135,VALID,1.6957,
2014-03-08, 08:49:04,VALID,919.885,VALID,0,VALID,78.6965,VALID,328.77,VALID,22.0047,VALID,145,VALID,1.79336,
2014-03-08, 08:50:04,VALID,919.895,VALID,0,VALID,79.9925,VALID,329.737,VALID,21.9835,VALID,139,VALID,1.87695,
2014-03-08, 08:51:04,VALID,919.915,VALID,0,VALID,79.1539,VALID,334.142,VALID,22.0615,VALID,154,VALID,1.05313,
2014-03-08, 08:52:04,VALID,919.946,VALID,0,VALID,76.8593,VALID,345.208,VALID,22.1396,VALID,173,VALID,2.8418,
2014-03-08, 08:53:04,VALID,919.96,VALID,0,VALID,78.0409,VALID,347.035,VALID,22.2176,VALID,158,VALID,1.4832,
2014-03-08, 08:54:04,VALID,919.953,VALID,0,VALID,77.4844,VALID,343.274,VALID,22.2567,VALID,138,VALID,1.69219,
2014-03-08, 08:55:04,VALID,919.976,VALID,0,VALID,78.0638,VALID,347.894,VALID,22.3152,VALID,150,VALID,1.34102,
2014-03-08, 08:56:04,VALID,919.968,VALID,0,VALID,78.2849,VALID,352.622,VALID,22.3542,VALID,136,VALID,1.1125,
2014-03-08, 08:57:04,VALID,919.987,VALID,0,VALID,77.0499,VALID,358.316,VALID,22.4111,VALID,161,VALID,1.3332,
2014-03-08, 08:58:04,VALID,919.994,VALID,0,VALID,75.792,VALID,366.482,VALID,22.4891,VALID,172,VALID,1.13359,
2014-03-08, 08:59:04,VALID,920.008,VALID,0,VALID,75.9292,VALID,374.54,VALID,22.6079,VALID,143,VALID,1.32266,
2014-03-08, 09:00:04,VALID,920.012,VALID,0,VALID,75.5252,VALID,362.936,VALID,22.5867,VALID,126,VALID,2.7332,
2014-03-08, 09:01:04,VALID,920.025,VALID,0,VALID,76.9813,VALID,372.284,VALID,22.647,VALID,164,VALID,1.2207,
2014-03-08, 09:02:04,VALID,920.05,VALID,0,VALID,76.7907,VALID,383.457,VALID,22.6452,VALID,161,VALID,1.42695,
2014-03-08, 09:03:04,VALID,920.038,VALID,0,VALID,76.9355,VALID,395.491,VALID,22.7445,VALID,145,VALID,1.36563,
2014-03-08, 09:04:04,VALID,920.047,VALID,0,VALID,76.1274,VALID,401.293,VALID,22.9007,VALID,160,VALID,1.12539,
2014-03-08, 09:05:04,VALID,919.99,VALID,0,VALID,73.97,VALID,406.02,VALID,23.0763,VALID,146,VALID,1.28398,
2014-03-08, 09:06:04,VALID,920.042,VALID,0,VALID,73.848,VALID,403.764,VALID,23.0941,VALID,166,VALID,1.70938,
2014-03-08, 09:07:04,VALID,920.021,VALID,0,VALID,73.8328,VALID,395.169,VALID,23.0746,VALID,162,VALID,1.42109,
2014-03-08, 09:08:04,VALID,919.997,VALID,0,VALID,74.3207,VALID,394.631,VALID,23.0746,VALID,156,VALID,2.36758,
2014-03-08, 09:09:04,VALID,920.042,VALID,0,VALID,73.9929,VALID,400.97,VALID,23.0551,VALID,160,VALID,1.54961,
2014-03-08, 09:10:04,VALID,920.049,VALID,0,VALID,74.557,VALID,408.921,VALID,23.1136,VALID,120,VALID,1.53359,
2014-03-08, 09:11:04,VALID,920.036,VALID,0,VALID,74.2826,VALID,412.037,VALID,23.1331,VALID,108,VALID,1.69062,
2014-03-08, 09:12:04,VALID,920.04,VALID,0,VALID,72.0337,VALID,419.88,VALID,23.0551,VALID,107,VALID,1.54297,
2014-03-08, 09:13:04,VALID,920.057,VALID,0,VALID,75.266,VALID,420.31,VALID,23.1331,VALID,107,VALID,1.64727,
2014-03-08, 09:14:04,VALID,920.048,VALID,0,VALID,73.9624,VALID,420.417,VALID,23.1331,VALID,119,VALID,1.63672,
2014-03-08, 09:15:04,VALID,920.081,VALID,0,VALID,74.0157,VALID,429.227,VALID,23.1722,VALID,163,VALID,1.28008,
2014-03-08, 09:16:04,VALID,920.055,VALID,0,VALID,72.9103,VALID,432.988,VALID,23.2893,VALID,145,VALID,1.28906,
2014-03-08, 09:17:04,VALID,920.045,VALID,0,VALID,71.1722,VALID,437.608,VALID,23.3478,VALID,167,VALID,1.9332,
2014-03-08, 09:18:04,VALID,920.057,VALID,0,VALID,71.6144,VALID,443.732,VALID,23.3869,VALID,182,VALID,1.53437,
2014-03-08, 09:19:04,VALID,920.055,VALID,0,VALID,72.087,VALID,450.393,VALID,23.4437,VALID,164,VALID,1.01211,
2014-03-08, 09:20:04,VALID,920.086,VALID,0,VALID,70.9283,VALID,455.765,VALID,23.5022,VALID,166,VALID,2.17109,
2014-03-08, 09:21:04,VALID,920.082,VALID,0,VALID,71.0121,VALID,464.038,VALID,23.4454,VALID,173,VALID,2.22305,
2014-03-08, 09:22:04,VALID,920.098,VALID,0,VALID,69.3883,VALID,465.757,VALID,23.4632,VALID,173,VALID,0.835547,
2014-03-08, 09:23:04,VALID,920.115,VALID,0,VALID,71.0655,VALID,470.7,VALID,23.5217,VALID,128,VALID,0.508203,
2014-03-08, 09:24:04,VALID,920.165,VALID,0,VALID,70.9893,VALID,476.179,VALID,23.6193,VALID,167,VALID,2.06484,
2014-03-08, 09:25:04,VALID,920.195,VALID,0,VALID,70.2498,VALID,470.485,VALID,23.6602,VALID,179,VALID,1.65234,
2014-03-08, 09:26:04,VALID,920.161,VALID,0,VALID,69.8686,VALID,467.047,VALID,23.7791,VALID,156,VALID,2.0293,
2014-03-08, 09:27:04,VALID,920.187,VALID,0,VALID,69.3273,VALID,483.055,VALID,23.7169,VALID,131,VALID,2.76914,
2014-03-08, 09:28:04,VALID,920.202,VALID,0,VALID,70.0287,VALID,487.998,VALID,23.6779,VALID,128,VALID,1.99492,
2014-03-08, 09:29:04,VALID,920.217,VALID,0,VALID,69.678,VALID,480.047,VALID,23.7755,VALID,166,VALID,1.57891,
2014-03-08, 09:30:04,VALID,920.197,VALID,0,VALID,69.8381,VALID,481.444,VALID,23.7169,VALID,107,VALID,1.92422,
2014-03-08, 09:31:04,VALID,920.226,VALID,0,VALID,70.3565,VALID,484.56,VALID,23.6779,VALID,138,VALID,1.49453,
2014-03-08, 09:32:04,VALID,920.23,VALID,0,VALID,68.443,VALID,485.312,VALID,23.756,VALID,154,VALID,1.15195,
2014-03-08, 09:33:04,VALID,920.213,VALID,0,VALID,69.739,VALID,491.006,VALID,23.8731,VALID,142,VALID,1.21719,
2014-03-08, 09:34:04,VALID,920.213,VALID,0,VALID,68.3058,VALID,496.163,VALID,23.9121,VALID,129,VALID,0.829687,
2014-03-08, 09:35:04,VALID,920.232,VALID,0,VALID,69.8,VALID,493.692,VALID,24.1269,VALID,129,VALID,0.360156,
2014-03-08, 09:36:04,VALID,920.245,VALID,0,VALID,69.335,VALID,507.445,VALID,24.1659,VALID,145,VALID,1.32227,
2014-03-08, 09:37:04,VALID,920.24,VALID,0,VALID,68.1152,VALID,503.577,VALID,24.2245,VALID,161,VALID,0.919922,
2014-03-08, 09:38:04,VALID,920.258,VALID,0,VALID,68.1762,VALID,502.18,VALID,24.244,VALID,158,VALID,1.80273,
2014-03-08, 09:39:04,VALID,920.265,VALID,0,VALID,67.0174,VALID,511.742,VALID,24.1854,VALID,157,VALID,2.16992,
2014-03-08, 09:40:04,VALID,920.263,VALID,0,VALID,67.7798,VALID,498.634,VALID,24.1659,VALID,168,VALID,1.36523,
2014-03-08, 09:41:04,VALID,920.236,VALID,0,VALID,67.8255,VALID,506.048,VALID,24.2654,VALID,175,VALID,1.58203,
2014-03-08, 09:42:04,VALID,920.23,VALID,0,VALID,68.1762,VALID,521.412,VALID,24.4002,VALID,181,VALID,0.517969,
2014-03-08, 09:43:04,VALID,920.268,VALID,0,VALID,68.6717,VALID,530.007,VALID,24.4978,VALID,148,VALID,1.20391,
2014-03-08, 09:44:04,VALID,920.256,VALID,0,VALID,66.865,VALID,530.652,VALID,24.6363,VALID,168,VALID,1.11953,
2014-03-08, 09:45:04,VALID,920.232,VALID,0,VALID,65.6529,VALID,521.842,VALID,24.7711,VALID,180,VALID,0.812891,
2014-03-08, 09:46:04,VALID,920.229,VALID,0,VALID,66.4533,VALID,525.924,VALID,24.8707,VALID,149,VALID,1.32617,
2014-03-08, 09:47:04,VALID,920.219,VALID,0,VALID,64.2044,VALID,529.47,VALID,24.8883,VALID,159,VALID,1.75547,
2014-03-08, 09:48:04,VALID,920.244,VALID,0,VALID,65.6376,VALID,538.065,VALID,24.6949,VALID,153,VALID,1.67773,
2014-03-08, 09:49:04,VALID,920.234,VALID,0,VALID,64.86,VALID,541.718,VALID,24.5954,VALID,176,VALID,1.5043,
2014-03-08, 09:50:04,VALID,920.229,VALID,0,VALID,65.1268,VALID,529.04,VALID,24.5973,VALID,139,VALID,0.987109,
2014-03-08, 09:51:04,VALID,920.246,VALID,0,VALID,67.3529,VALID,537.313,VALID,24.7126,VALID,141,VALID,1.23672,
2014-03-08, 09:52:04,VALID,920.247,VALID,0,VALID,65.0659,VALID,554.074,VALID,24.7126,VALID,138,VALID,0.730859,
2014-03-08, 09:53:04,VALID,920.246,VALID,0,VALID,64.2044,VALID,556.975,VALID,24.734,VALID,148,VALID,0.434766,
2014-03-08, 09:54:04,VALID,920.252,VALID,0,VALID,64.3416,VALID,555.471,VALID,24.9078,VALID,148,VALID,1.21172,
2014-03-08, 09:55:04,VALID,920.236,VALID,0,VALID,63.3506,VALID,558.157,VALID,24.8102,VALID,122,VALID,1.90313,
2014-03-08, 09:56:04,VALID,920.234,VALID,0,VALID,64.2349,VALID,551.603,VALID,24.8492,VALID,164,VALID,0.885547,
2014-03-08, 09:57:04,VALID,920.234,VALID,0,VALID,63.2972,VALID,543.975,VALID,24.9488,VALID,155,VALID,1.47734,
2014-03-08, 09:58:04,VALID,920.239,VALID,0,VALID,63.7927,VALID,562.992,VALID,25.0659,VALID,143,VALID,0.551953,
2014-03-08, 09:59:04,VALID,920.247,VALID,0,VALID,63.0609,VALID,579.752,VALID,25.1441,VALID,121,VALID,2.06523,
2014-03-08, 10:00:04,VALID,920.231,VALID,0,VALID,65.2793,VALID,574.058,VALID,25.0874,VALID,112,VALID,0.839063,
2014-03-08, 10:01:04,VALID,920.217,VALID,0,VALID,62.8474,VALID,584.158,VALID,25.0269,VALID,137,VALID,1.52773,
2014-03-08, 10:02:04,VALID,920.23,VALID,0,VALID,64.1815,VALID,589.207,VALID,24.9488,VALID,150,VALID,1.05352,
2014-03-08, 10:03:04,VALID,920.196,VALID,0,VALID,64.4865,VALID,575.133,VALID,25.1441,VALID,143,VALID,0.862109,
2014-03-08, 10:04:04,VALID,920.214,VALID,0,VALID,62.2909,VALID,561.595,VALID,25.3198,VALID,163,VALID,1.01875,
2014-03-08, 10:05:04,VALID,920.191,VALID,0,VALID,60.2784,VALID,580.934,VALID,25.4546,VALID,188,VALID,0.736328,
2014-03-08, 10:06:04,VALID,920.215,VALID,0,VALID,61.7802,VALID,588.24,VALID,25.6909,VALID,188,VALID,1.11172,
2014-03-08, 10:07:04,VALID,920.193,VALID,0,VALID,60.7739,VALID,585.554,VALID,25.9038,VALID,188,VALID,0.571484,
2014-03-08, 10:08:04,VALID,920.24,VALID,0,VALID,60.3546,VALID,578.141,VALID,25.9839,VALID,143,VALID,0.8,
2014-03-08, 10:09:04,VALID,920.208,VALID,0,VALID,60.2021,VALID,587.058,VALID,26.0015,VALID,148,VALID,0.531641,
2014-03-08, 10:10:04,VALID,920.197,VALID,0,VALID,59.051,VALID,599.951,VALID,26.023,VALID,199,VALID,2.35625,
2014-03-08, 10:11:04,VALID,920.242,VALID,0,VALID,59.4398,VALID,605.323,VALID,25.9839,VALID,190,VALID,1.71328,
2014-03-08, 10:12:04,VALID,920.222,VALID,0,VALID,61.0559,VALID,599.951,VALID,25.8628,VALID,175,VALID,1.78164,
2014-03-08, 10:13:04,VALID,920.21,VALID,0,VALID,60.5757,VALID,600.381,VALID,25.8042,VALID,212,VALID,0.830859,
2014-03-08, 10:14:04,VALID,920.221,VALID,0,VALID,60.9035,VALID,613.596,VALID,25.9234,VALID,188,VALID,0.289063,
2014-03-08, 10:15:04,VALID,920.229,VALID,0,VALID,60.347,VALID,617.572,VALID,25.982,VALID,161,VALID,1.20156,
2014-03-08, 10:16:04,VALID,920.215,VALID,0,VALID,61.0712,VALID,621.44,VALID,26.0386,VALID,130,VALID,0.381641,
2014-03-08, 10:17:04,VALID,920.214,VALID,0,VALID,61.1474,VALID,608.117,VALID,26.0581,VALID,125,VALID,1.29609,
2014-03-08, 10:18:04,VALID,920.184,VALID,0,VALID,61.7268,VALID,606.72,VALID,25.9019,VALID,126,VALID,1.07266,
2014-03-08, 10:19:04,VALID,920.2,VALID,0,VALID,63.7165,VALID,608.117,VALID,25.8628,VALID,187,VALID,1.40156,
2014-03-08, 10:20:04,VALID,920.198,VALID,0,VALID,61.9403,VALID,623.481,VALID,25.8823,VALID,163,VALID,0.975391,
2014-03-08, 10:21:04,VALID,920.201,VALID,0,VALID,61.6658,VALID,641.531,VALID,25.98,VALID,187,VALID,0.526953,
2014-03-08, 10:22:04,VALID,920.162,VALID,0,VALID,61.0559,VALID,637.448,VALID,26.1167,VALID,70,VALID,1.38398,
2014-03-08, 10:23:04,VALID,920.165,VALID,0,VALID,59.5541,VALID,648.192,VALID,26.1773,VALID,64,VALID,0.839453,
2014-03-08, 10:24:04,VALID,920.157,VALID,0,VALID,61.2846,VALID,651.523,VALID,26.2945,VALID,64,VALID,0.671875,
2014-03-08, 10:25:04,VALID,920.136,VALID,0,VALID,57.2595,VALID,657.432,VALID,26.3726,VALID,60,VALID,2.01211,
2014-03-08, 10:26:04,VALID,920.186,VALID,0,VALID,58.2963,VALID,661.945,VALID,26.314,VALID,60,VALID,0.270703,
2014-03-08, 10:27:04,VALID,920.175,VALID,0,VALID,57.5568,VALID,649.374,VALID,26.4898,VALID,60,VALID,0.25625,
2014-03-08, 10:28:04,VALID,920.165,VALID,0,VALID,57.3891,VALID,635.622,VALID,26.566,VALID,60,VALID,0.0636719,
2014-03-08, 10:29:04,VALID,920.174,VALID,0,VALID,58.4259,VALID,668.391,VALID,26.6852,VALID,60,VALID,0.507031,
2014-03-08, 10:30:04,VALID,920.171,VALID,0,VALID,58.9138,VALID,641.424,VALID,26.7829,VALID,60,VALID,0.527344,
2014-03-08, 10:31:04,VALID,920.179,VALID,0,VALID,58.6774,VALID,556.975,VALID,26.9978,VALID,145,VALID,0.859375,
2014-03-08, 10:32:04,VALID,920.215,VALID,0,VALID,58.4182,VALID,635.837,VALID,26.7829,VALID,138,VALID,1.54062,
2014-03-08, 10:33:04,VALID,920.232,VALID,0,VALID,56.5581,VALID,651.738,VALID,26.5855,VALID,197,VALID,2.13398,
2014-03-08, 10:34:04,VALID,920.231,VALID,0,VALID,57.4424,VALID,521.519,VALID,26.5875,VALID,164,VALID,1.15313,
2014-03-08, 10:35:04,VALID,920.208,VALID,0,VALID,59.8286,VALID,647.655,VALID,26.4488,VALID,128,VALID,1.13906,
2014-03-08, 10:36:04,VALID,920.204,VALID,0,VALID,57.7702,VALID,434.922,VALID,26.5464,VALID,195,VALID,0.962109,
2014-03-08, 10:37:04,VALID,920.195,VALID,0,VALID,58.1972,VALID,506.585,VALID,26.6246,VALID,215,VALID,0.905469,
2014-03-08, 10:38:04,VALID,920.199,VALID,0,VALID,56.7716,VALID,542.578,VALID,26.6832,VALID,166,VALID,1.82109,
2014-03-08, 10:39:04,VALID,920.188,VALID,0,VALID,56.1541,VALID,589.959,VALID,26.6441,VALID,167,VALID,0.819531,
2014-03-08, 10:40:04,VALID,920.155,VALID,0,VALID,57.9303,VALID,629.498,VALID,26.7223,VALID,119,VALID,0.466406,
2014-03-08, 10:41:04,VALID,920.118,VALID,0,VALID,56.9927,VALID,656.251,VALID,26.8395,VALID,119,VALID,1.38398,
2014-03-08, 10:42:04,VALID,920.131,VALID,0,VALID,57.4958,VALID,679.243,VALID,26.859,VALID,243,VALID,0.820703,
2014-03-08, 10:43:04,VALID,920.123,VALID,0,VALID,59.5922,VALID,676.127,VALID,26.9762,VALID,104,VALID,1.83555,
2014-03-08, 10:44:04,VALID,920.111,VALID,0,VALID,59.8743,VALID,665.705,VALID,26.7634,VALID,79,VALID,1.04688,
2014-03-08, 10:45:04,VALID,920.071,VALID,0,VALID,60.5452,VALID,649.697,VALID,26.6441,VALID,91,VALID,0.99375,
2014-03-08, 10:46:04,VALID,920.089,VALID,0,VALID,58.8375,VALID,422.351,VALID,26.6636,VALID,59,VALID,1.17773,